When you browse on this site, cookies collect data to enhance your experience and personalize the content and advertising you see.
Visit our Privacy Policy to learn more. By continuing to use the site, you agree to this use of cookies and data.
  • En España
  • Lista de países
  • Para 7 días
  • Temperatura del agua
  • El tiempo en el mapa
  • Informadores
  • user-avatar
    Iniciar sesión

    Tiempo cada hora Yurovka

    Hoy, 21 Septiembre, Sábado

    Tiempo Temperatura Precipitaciones Viento Presión Humedad
    00:00 +3°C° 0 mm 2 mps 737 mmHg 92%
    01:00 +3°C° 0 mm 2 mps 737 mmHg 93%
    02:00 +3°C° 0 mm 2 mps 737 mmHg 96%
    03:00 +2°C° 0 mm 2 mps 737 mmHg 96%
    04:00 +2°C° 0 mm 2 mps 738 mmHg 96%
    05:00 +1°C° 0 mm 3 mps 738 mmHg 96%
    06:00 +2°C° 0 mm 3 mps 738 mmHg 91%
    07:00 +3°C° 0 mm 3 mps 738 mmHg 87%
    08:00 +4°C° 0 mm 3 mps 738 mmHg 83%
    09:00 +5°C° 0.1 mm 3 mps 738 mmHg 76%
    10:00 +6°C° 0.1 mm 4 mps 738 mmHg 70%
    11:00 +8°C° 0.1 mm 4 mps 738 mmHg 63%
    12:00 +8°C° 0.1 mm 4 mps 738 mmHg 60%
    13:00 +8°C° 0.1 mm 5 mps 738 mmHg 58%
    14:00 +8°C° 0.1 mm 5 mps 737 mmHg 55%
    15:00 +8°C° 0 mm 4 mps 737 mmHg 58%
    16:00 +8°C° 0 mm 3 mps 737 mmHg 61%
    17:00 +7°C° 0 mm 2 mps 737 mmHg 64%
    18:00 +5°C° 0 mm 3 mps 736 mmHg 66%
    19:00 +5°C° 0 mm 3 mps 736 mmHg 67%
    20:00 +4°C° 0 mm 3 mps 736 mmHg 69%
    21:00 +4°C° 0 mm 4 mps 735 mmHg 72%
    22:00 +3°C° 0 mm 5 mps 734 mmHg 76%
    23:00 +3°C° 0 mm 5 mps 734 mmHg 79%

    Mañana, 22 Septiembre, Domingo

    Tiempo Temperatura Precipitaciones Viento Presión Humedad
    00:00 +3°C° 0.4 mm 6 mps 733 mmHg 83%
    01:00 +3°C° 0.4 mm 7 mps 731 mmHg 86%
    02:00 +3°C° 0.4 mm 7 mps 730 mmHg 90%
    03:00 +4°C° 0.9 mm 7 mps 730 mmHg 92%
    04:00 +5°C° 0.9 mm 7 mps 729 mmHg 93%
    05:00 +5°C° 0.9 mm 6 mps 728 mmHg 95%
    06:00 +7°C° 0.5 mm 6 mps 728 mmHg 93%
    07:00 +7°C° 0.5 mm 6 mps 727 mmHg 91%
    08:00 +8°C° 0.5 mm 6 mps 727 mmHg 89%
    09:00 +8°C° 0.2 mm 7 mps 727 mmHg 85%
    10:00 +7°C° 0.2 mm 8 mps 728 mmHg 80%
    11:00 +7°C° 0.2 mm 8 mps 728 mmHg 76%
    12:00 +7°C° 0.3 mm 8 mps 728 mmHg 74%
    13:00 +6°C° 0.3 mm 8 mps 729 mmHg 73%
    14:00 +5°C° 0.3 mm 9 mps 729 mmHg 71%
    15:00 +5°C° 0 mm 8 mps 729 mmHg 70%
    16:00 +5°C° 0 mm 7 mps 730 mmHg 69%
    17:00 +4°C° 0 mm 6 mps 731 mmHg 68%
    18:00 +3°C° 0 mm 6 mps 731 mmHg 71%
    19:00 +2°C° 0 mm 6 mps 732 mmHg 73%
    20:00 +1°C° 0 mm 6 mps 732 mmHg 76%
    21:00 +1°C° 0 mm 6 mps 733 mmHg 77%
    22:00 -1°C° 0 mm 6 mps 734 mmHg 78%
    23:00 -1°C° 0 mm 6 mps 734 mmHg 80%

    Pasado mañana, 23 Septiembre, Lunes

    Tiempo Temperatura Precipitaciones Viento Presión Humedad
    00:00 -1°C° 0 mm 6 mps 735 mmHg 81%
    01:00 -1°C° 0 mm 5 mps 735 mmHg 83%
    02:00 -1°C° 0 mm 5 mps 736 mmHg 85%
    03:00 -1°C° 0 mm 5 mps 736 mmHg 86%
    04:00 -1°C° 0 mm 5 mps 737 mmHg 88%
    05:00 -1°C° 0 mm 5 mps 737 mmHg 89%
    06:00 -1°C° 0 mm 5 mps 738 mmHg 86%
    07:00 0°C° 0 mm 5 mps 738 mmHg 82%
    08:00 +1°C° 0 mm 6 mps 739 mmHg 78%
    09:00 +1°C° 0 mm 6 mps 739 mmHg 74%
    10:00 +2°C° 0 mm 5 mps 739 mmHg 70%
    11:00 +3°C° 0 mm 5 mps 740 mmHg 67%
    12:00 +5°C° 0 mm 5 mps 740 mmHg 64%
    13:00 +5°C° 0 mm 5 mps 740 mmHg 61%
    14:00 +6°C° 0 mm 5 mps 740 mmHg 58%
    15:00 +6°C° 0 mm 5 mps 740 mmHg 61%
    16:00 +5°C° 0 mm 4 mps 740 mmHg 63%
    17:00 +4°C° 0 mm 3 mps 740 mmHg 66%
    18:00 +3°C° 0 mm 3 mps 740 mmHg 69%
    19:00 +2°C° 0 mm 3 mps 740 mmHg 72%
    20:00 +2°C° 0 mm 3 mps 740 mmHg 75%
    21:00 +1°C° 0 mm 3 mps 741 mmHg 76%
    22:00 +2°C° 0 mm 2 mps 741 mmHg 78%
    23:00 +1°C° 0 mm 2 mps 741 mmHg 79%

    24 Septiembre, Martes

    Tiempo Temperatura Precipitaciones Viento Presión Humedad
    00:00 +1°C° 0 mm 2 mps 741 mmHg 81%
    01:00 +1°C° 0 mm 2 mps 741 mmHg 82%
    02:00 +1°C° 0 mm 2 mps 741 mmHg 84%
    03:00 -1°C° 0 mm 2 mps 741 mmHg 84%
    04:00 -1°C° 0 mm 2 mps 741 mmHg 85%
    05:00 -1°C° 0 mm 2 mps 741 mmHg 86%
    06:00 +1°C° 0 mm 2 mps 741 mmHg 81%
    07:00 +2°C° 0 mm 2 mps 741 mmHg 76%
    08:00 +4°C° 0 mm 2 mps 741 mmHg 71%
    09:00 +4°C° 0 mm 3 mps 741 mmHg 68%
    10:00 +5°C° 0 mm 3 mps 741 mmHg 64%
    11:00 +7°C° 0 mm 3 mps 741 mmHg 60%
    12:00 +7°C° 0 mm 3 mps 741 mmHg 60%
    13:00 +7°C° 0 mm 3 mps 741 mmHg 59%
    14:00 +7°C° 0 mm 3 mps 740 mmHg 59%
    15:00 +7°C° 0 mm 3 mps 740 mmHg 61%
    16:00 +6°C° 0 mm 2 mps 740 mmHg 63%
    17:00 +6°C° 0 mm 2 mps 740 mmHg 64%
    18:00 +5°C° 0 mm 2 mps 740 mmHg 64%
    19:00 +5°C° 0 mm 2 mps 740 mmHg 64%
    20:00 +5°C° 0 mm 2 mps 740 mmHg 63%
    21:00 +5°C° 0 mm 1 mps 740 mmHg 63%
    22:00 +5°C° 0 mm 1 mps 741 mmHg 63%
    23:00 +5°C° 0 mm 1 mps 741 mmHg 63%

    25 Septiembre, Miércoles

    Tiempo Temperatura Precipitaciones Viento Presión Humedad
    00:00 +5°C° 0 mm 1 mps 741 mmHg 63%
    01:00 +5°C° 0 mm 1 mps 741 mmHg 63%
    02:00 +5°C° 0 mm 1 mps 741 mmHg 63%
    03:00 +4°C° 0 mm 1 mps 741 mmHg 64%
    04:00 +4°C° 0 mm 1 mps 741 mmHg 65%
    05:00 +4°C° 0 mm 1 mps 741 mmHg 66%
    06:00 +4°C° 0 mm 1 mps 741 mmHg 63%
    07:00 +5°C° 0 mm 1 mps 741 mmHg 59%
    08:00 +6°C° 0 mm 1 mps 741 mmHg 56%
    09:00 +7°C° 0 mm 1 mps 741 mmHg 54%
    10:00 +7°C° 0 mm 1 mps 742 mmHg 52%
    11:00 +8°C° 0 mm 1 mps 742 mmHg 49%
    12:00 +8°C° 0 mm 1 mps 742 mmHg 49%
    13:00 +8°C° 0 mm 1 mps 741 mmHg 48%
    14:00 +9°C° 0 mm 1 mps 741 mmHg 48%
    15:00 +8°C° 0 mm 1 mps 741 mmHg 51%
    16:00 +7°C° 0 mm 1 mps 741 mmHg 55%
    17:00 +6°C° 0 mm 1 mps 741 mmHg 59%
    18:00 +6°C° 0 mm 1 mps 741 mmHg 61%
    19:00 +5°C° 0 mm 1 mps 742 mmHg 62%
    20:00 +4°C° 0 mm 1 mps 742 mmHg 63%
    21:00 +4°C° 0 mm 1 mps 742 mmHg 65%
    22:00 +4°C° 0 mm 1 mps 742 mmHg 66%
    23:00 +2°C° 0 mm 2 mps 742 mmHg 68%

    26 Septiembre, Jueves

    Tiempo Temperatura Precipitaciones Viento Presión Humedad
    00:00 +2°C° 0 mm 2 mps 742 mmHg 69%
    01:00 +2°C° 0 mm 2 mps 742 mmHg 70%
    02:00 +1°C° 0 mm 2 mps 742 mmHg 71%
    03:00 +1°C° 0 mm 2 mps 742 mmHg 70%
    04:00 +1°C° 0 mm 2 mps 742 mmHg 70%
    05:00 +1°C° 0 mm 2 mps 742 mmHg 70%
    06:00 +2°C° 0 mm 2 mps 742 mmHg 66%
    07:00 +3°C° 0 mm 3 mps 742 mmHg 63%
    08:00 +4°C° 0 mm 3 mps 742 mmHg 60%
    09:00 +5°C° 0 mm 4 mps 742 mmHg 57%
    10:00 +6°C° 0 mm 4 mps 743 mmHg 54%
    11:00 +7°C° 0 mm 4 mps 743 mmHg 52%
    12:00 +7°C° 0 mm 4 mps 742 mmHg 51%
    13:00 +8°C° 0 mm 4 mps 742 mmHg 51%
    14:00 +8°C° 0 mm 4 mps 742 mmHg 50%
    15:00 +8°C° 0 mm 3 mps 741 mmHg 54%
    16:00 +7°C° 0 mm 3 mps 741 mmHg 57%
    17:00 +5°C° 0 mm 3 mps 741 mmHg 61%
    18:00 +5°C° 0 mm 3 mps 741 mmHg 61%
    19:00 +5°C° 0 mm 3 mps 741 mmHg 60%
    20:00 +4°C° 0 mm 4 mps 741 mmHg 60%
    21:00 +4°C° 0 mm 4 mps 741 mmHg 60%
    22:00 +4°C° 0 mm 4 mps 741 mmHg 60%
    23:00 +4°C° 0 mm 4 mps 741 mmHg 60%
    Mostrar más